Weather History for Linden, NJ

Change the Weather History Date:

Sunday, February 3, 2013

  Actual Average (KEWR) Record (KEWR)
Temperature  
Mean Temperature 29 °F 32 °F  
Max Temperature 32 °F 40 °F 64 °F (1991)
Min Temperature 26 °F 25 °F 1 °F (1955)
Degree Days  
Heating Degree Days 36 32  
Month to date heating degree days 98  
Since 1 July heating degree days 2882  
Cooling Degree Days 0 0  
Month to date cooling degree days 0  
Year to date cooling degree days 0  
Moisture  
Dew Point 21 °F    
Average Humidity 75    
Maximum Humidity 93    
Minimum Humidity 58    
Precipitation  
Precipitation 0.00 in 0.10 in 1.74 in (1939)
Month to date precipitation 0.31  
Year to date precipitation 3.85  
Snow  
Snow 0.00 in 0.30 in 7.40 in (1961)
Month to date snowfall 1.0  
Since 1 July snowfall 14.7  
Snow Depth -    
Sea Level Pressure  
Sea Level Pressure 29.90 in    
Wind  
Wind Speed 3 mph (NW)    
Max Wind Speed 10 mph    
Max Gust Speed -    
Visibility 9 miles    
Events Snow    
T = Trace of Precipitation, MM = Missing Value Source: NWS Daily Summary

Daily Weather History Graph

Daily Weather History Graph

Search for Another Location

Airport:

Trip Planner

Search our weather history database for the weather conditions in past years. The results will help you decide how hot, cold, wet, or windy it might be!

Date:

Astronomy

Feb. 03, 2013 Rise Set
Actual Time 7:04 AM EST 5:17 PM EST
Civil Twilight 6:35 AM EST 5:46 PM EST
Nautical Twilight 6:03 AM EST 6:19 PM EST
Astronomical Twilight 5:31 AM EST 6:51 PM EST
Moon 12:29 AM EST (2/3) 10:52 AM EST (2/3)
Length of Visible Light 11h 10m
Length of Day
10h 13m
Waning Gibbous, 49% of the Moon is Illuminated
Feb 3
Waning Gibbous
Feb 10
New
Feb 17
First Quarter
Feb 25
Full
Mar 4
Last Quarter

Hourly Weather History & Observations

Time (EST) Temp. Windchill Dew Point Humidity Pressure Visibility Wind Dir Wind Speed Gust Speed Precip Events Conditions
12:15 AM 26.2 °F - 23.7 °F 90% 30.06 in 7.0 mi Calm Calm - N/A Snow Light Snow
12:35 AM 26.2 °F - 23.5 °F 90% 30.05 in 7.0 mi Calm Calm - N/A   Overcast
12:55 AM 26.2 °F - 23.7 °F 90% 30.04 in 5.0 mi Calm Calm - N/A   Overcast
1:15 AM 26.4 °F - 23.9 °F 90% 30.04 in 4.0 mi Calm Calm - N/A Snow Light Snow
1:35 AM 26.4 °F - 24.3 °F 92% 30.03 in 4.0 mi Calm Calm - N/A   Overcast
1:55 AM 26.6 °F - 24.4 °F 92% 30.02 in 4.0 mi Calm Calm - N/A Snow Light Snow
2:15 AM 26.6 °F - 24.6 °F 92% 30.01 in 4.0 mi Calm Calm - N/A Snow Light Snow
2:35 AM 26.6 °F - 24.6 °F 92% 30.00 in 5.0 mi Calm Calm - N/A Snow Light Snow
2:55 AM 26.6 °F - 24.8 °F 93% 30.00 in 7.0 mi Calm Calm - N/A   Overcast
3:15 AM 26.6 °F - 24.4 °F 92% 29.99 in 10.0 mi Calm Calm - N/A   Overcast
3:35 AM 26.6 °F - 24.4 °F 92% 29.98 in 10.0 mi Calm Calm - N/A   Overcast
3:55 AM 26.6 °F - 24.3 °F 91% 29.97 in 10.0 mi Calm Calm - N/A   Overcast
4:15 AM 26.6 °F - 24.4 °F 92% 29.96 in 10.0 mi Calm Calm - N/A   Overcast
4:35 AM 26.6 °F - 24.3 °F 91% 29.96 in 10.0 mi Calm Calm - N/A   Overcast
4:55 AM 26.6 °F - 23.7 °F 89% 29.95 in 10.0 mi Calm Calm - N/A   Overcast
5:15 AM 26.6 °F - 23.2 °F 87% 29.95 in 10.0 mi Calm Calm - N/A   Overcast
5:35 AM 27.1 °F 23.2 °F 23.7 °F 87% 29.95 in 10.0 mi NE 3.5 mph - N/A   Overcast
5:55 AM 27.0 °F 23.0 °F 23.0 °F 85% 29.95 in 10.0 mi NNE 3.5 mph - N/A   Overcast
6:15 AM 27.0 °F 21.6 °F 22.3 °F 83% 29.95 in 10.0 mi North 4.6 mph - N/A   Overcast
6:35 AM 27.0 °F 23.0 °F 21.9 °F 81% 29.95 in 10.0 mi NNE 3.5 mph - N/A   Overcast
6:55 AM 27.0 °F 19.5 °F 21.2 °F 79% 29.95 in 10.0 mi North 6.9 mph - N/A   Overcast
7:15 AM 27.0 °F 23.0 °F 21.0 °F 78% 29.96 in 10.0 mi North 3.5 mph - N/A   Overcast
7:35 AM 27.0 °F 23.0 °F 21.2 °F 79% 29.96 in 10.0 mi NNW 3.5 mph - N/A   Overcast
7:55 AM 26.4 °F 20.9 °F 20.1 °F 77% 29.96 in 10.0 mi North 4.6 mph - N/A   Scattered Clouds
8:15 AM 26.8 °F 22.8 °F 21.0 °F 79% 29.96 in 10.0 mi North 3.5 mph - N/A   Mostly Cloudy
8:35 AM 26.6 °F 22.6 °F 20.7 °F 78% 29.96 in 10.0 mi North 3.5 mph - N/A   Overcast
8:55 AM 27.0 °F 23.0 °F 21.0 °F 78% 29.96 in 10.0 mi North 3.5 mph - N/A   Overcast
9:15 AM 27.0 °F 23.0 °F 21.2 °F 79% 29.95 in 10.0 mi North 3.5 mph - N/A   Overcast
9:55 AM 27.3 °F 20.9 °F 21.9 °F 80% 29.94 in 10.0 mi North 5.8 mph - N/A   Overcast
10:15 AM 27.5 °F 21.1 °F 21.9 °F 80% 29.94 in 10.0 mi North 5.8 mph - N/A   Overcast
10:35 AM 28.0 °F 20.8 °F 21.9 °F 78% 29.93 in 10.0 mi North 6.9 mph - N/A   Overcast
10:55 AM 28.4 °F - 22.1 °F 77% 29.93 in 10.0 mi Calm Calm - N/A   Overcast
11:15 AM 28.9 °F 25.2 °F 21.9 °F 75% 29.92 in 10.0 mi North 3.5 mph - N/A   Overcast
11:35 AM 29.1 °F 25.4 °F 21.9 °F 74% 29.91 in 10.0 mi NNW 3.5 mph - N/A   Overcast
11:55 AM 29.7 °F 24.7 °F 22.1 °F 73% 29.89 in 10.0 mi North 4.6 mph - N/A   Overcast
12:15 PM 30.2 °F 25.4 °F 22.1 °F 72% 29.88 in 10.0 mi North 4.6 mph - N/A   Mostly Cloudy
12:35 PM 30.2 °F 24.3 °F 22.3 °F 72% 29.86 in 10.0 mi NW 5.8 mph - N/A   Scattered Clouds
12:55 PM 30.7 °F 24.9 °F 22.1 °F 70% 29.86 in 10.0 mi West 5.8 mph - N/A Snow Light Snow
1:15 PM 31.3 °F 27.9 °F 22.3 °F 69% 29.85 in 10.0 mi NNW 3.5 mph - N/A Snow Light Snow
1:35 PM 31.3 °F 26.6 °F 21.9 °F 68% 29.84 in 10.0 mi West 4.6 mph - N/A   Mostly Cloudy
1:55 PM 32.0 °F 28.7 °F 22.3 °F 67% 29.83 in 10.0 mi WNW 3.5 mph - N/A   Overcast
2:15 PM 31.6 °F 24.4 °F 21.2 °F 65% 29.82 in 10.0 mi WSW 8.1 mph - N/A   Mostly Cloudy
2:35 PM 32.0 °F 24.8 °F 21.7 °F 66% 29.82 in 10.0 mi West 8.1 mph - N/A   Overcast
2:55 PM 32.0 °F 24.8 °F 21.4 °F 65% 29.81 in 10.0 mi West 8.1 mph - N/A   Scattered Clouds
3:15 PM 32.0 °F 25.6 °F 21.7 °F 66% 29.81 in 10.0 mi West 6.9 mph - N/A Snow Light Snow
3:35 PM 32.4 °F 24.6 °F 21.6 °F 64% 29.81 in 10.0 mi West 9.2 mph - N/A   Mostly Cloudy
3:55 PM 32.4 °F 24.0 °F 20.8 °F 63% 29.81 in 10.0 mi WNW 10.4 mph - N/A   Scattered Clouds
4:15 PM 32.4 °F 24.0 °F 19.2 °F 58% 29.81 in 10.0 mi WNW 10.4 mph - N/A   Scattered Clouds
4:55 PM 31.8 °F 24.6 °F 19.0 °F 59% 29.81 in 10.0 mi West 8.1 mph - N/A   Clear
5:15 PM 31.5 °F 24.2 °F 19.2 °F 61% 29.81 in 10.0 mi West 8.1 mph - N/A   Clear
5:35 PM 31.1 °F 23.7 °F 19.4 °F 62% 29.81 in 10.0 mi West 8.1 mph - N/A   Clear
5:55 PM 30.7 °F 22.6 °F 18.5 °F 60% 29.81 in 10.0 mi West 9.2 mph - N/A   Clear
6:15 PM 30.2 °F 22.6 °F 19.4 °F 64% 29.82 in 10.0 mi West 8.1 mph - N/A   Clear
6:35 PM 29.8 °F 22.2 °F 19.0 °F 64% 29.82 in 10.0 mi West 8.1 mph - N/A   Clear
6:55 PM 29.3 °F 22.3 °F 18.7 °F 65% 29.82 in 10.0 mi West 6.9 mph - N/A   Clear
7:15 PM 29.1 °F 23.0 °F 18.5 °F 65% 29.83 in 10.0 mi West 5.8 mph - N/A   Clear
7:35 PM 28.9 °F 21.9 °F 18.3 °F 65% 29.83 in 10.0 mi West 6.9 mph - N/A   Clear
7:55 PM 28.8 °F 23.7 °F 18.1 °F 65% 29.83 in 10.0 mi WNW 4.6 mph - N/A   Clear
8:15 PM 28.0 °F 21.7 °F 18.5 °F 67% 29.83 in 10.0 mi West 5.8 mph - N/A   Clear
8:35 PM 27.5 °F 22.2 °F 18.5 °F 69% 29.83 in 10.0 mi West 4.6 mph - N/A   Clear
8:55 PM 27.9 °F 22.6 °F 18.3 °F 67% 29.83 in 10.0 mi West 4.6 mph - N/A   Clear
9:15 PM 27.5 °F - 18.7 °F 69% 29.83 in 10.0 mi Calm Calm - N/A   Clear
9:35 PM 27.5 °F - 18.7 °F 69% 29.83 in 10.0 mi Calm Calm - N/A   Scattered Clouds
9:55 PM 27.3 °F 23.4 °F 19.4 °F 72% 29.83 in 10.0 mi West 3.5 mph - N/A   Mostly Cloudy
10:15 PM 27.7 °F - 19.2 °F 71% 29.83 in 10.0 mi Calm Calm - N/A   Overcast
10:35 PM 28.4 °F 24.6 °F 19.2 °F 69% 29.83 in 10.0 mi WSW 3.5 mph - N/A   Overcast
10:55 PM 28.9 °F 22.8 °F 19.4 °F 68% 29.83 in 10.0 mi WSW 5.8 mph - N/A   Overcast
11:15 PM 28.8 °F 23.7 °F 19.4 °F 68% 29.82 in 10.0 mi WSW 4.6 mph - N/A   Overcast
11:35 PM 28.9 °F 23.9 °F 19.9 °F 69% 29.82 in 10.0 mi WSW 4.6 mph - N/A   Overcast
11:55 PM 28.9 °F 21.1 °F 20.3 °F 70% 29.83 in 10.0 mi WSW 8.1 mph - N/A   Overcast